N155SK KSHV-KHOU

Flight info

Callsign N155SK
Flight time N/A
Altitude 7000
Route EMG/N0170F080 PLANB CESAN CESAN4
Aircraft DA62/L-SDFGRY/C

Departure

Time 2026-04-12 22:03
Airport Shreveport Regional Airport (KSHV)

Arrival

Time N/A
Airport William P. Hobby Airport (KHOU)
Time Latitude Longitude Altitude Speed Heading
2026-04-12 21:48 32.45100 -93.83780 252 ft 0 kts 327°
2026-04-12 21:59 32.45129 -93.83790 252 ft 11 kts 354°
2026-04-12 21:59 32.45218 -93.83729 252 ft 18 kts 50°
2026-04-12 21:59 32.45227 -93.83718 252 ft 0 kts 51°
2026-04-12 22:00 32.45227 -93.83717 252 ft 0 kts 51°
2026-04-12 22:00 32.45247 -93.83687 252 ft 0 kts 52°
2026-04-12 22:01 32.45253 -93.83677 252 ft 10 kts 52°
2026-04-12 22:01 32.45333 -93.83549 243 ft 16 kts 53°
2026-04-12 22:01 32.45335 -93.83439 253 ft 1 kts 141°
2026-04-12 22:02 32.45332 -93.83436 253 ft 7 kts 140°
2026-04-12 22:02 32.45141 -93.83267 242 ft 61 kts 142°
2026-04-12 22:02 32.44720 -93.82875 287 ft 89 kts 143°
2026-04-12 22:02 32.44269 -93.82355 493 ft 89 kts 136°
2026-04-12 22:03 32.43878 -93.81793 697 ft 91 kts 134°
2026-04-12 22:03 32.43428 -93.81194 829 ft 102 kts 135°
2026-04-12 22:03 32.42953 -93.80515 996 ft 113 kts 135°
2026-04-12 22:03 32.42611 -93.79653 1240 ft 121 kts 111°
2026-04-12 22:04 32.42528 -93.78671 1548 ft 123 kts 101°
2026-04-12 22:04 32.42505 -93.77640 1784 ft 124 kts 108°
2026-04-12 22:04 32.42344 -93.76651 2036 ft 123 kts 113°
2026-04-12 22:04 32.42194 -93.75650 2305 ft 124 kts 111°
2026-04-12 22:05 32.42053 -93.74643 2598 ft 124 kts 111°
2026-04-12 22:05 32.41917 -93.73636 2956 ft 124 kts 111°
2026-04-12 22:05 32.41785 -93.72638 3312 ft 120 kts 111°
2026-04-12 22:05 32.41660 -93.71683 3610 ft 115 kts 112°
2026-04-12 22:06 32.41534 -93.70760 3890 ft 112 kts 110°
2026-04-12 22:06 32.41414 -93.69833 4096 ft 115 kts 111°
2026-04-12 22:06 32.41288 -93.68900 4326 ft 115 kts 110°
2026-04-12 22:06 32.41164 -93.67959 4546 ft 116 kts 111°
2026-04-12 22:07 32.41038 -93.67015 4764 ft 116 kts 112°
2026-04-12 22:07 32.40912 -93.66068 4970 ft 117 kts 112°
2026-04-12 22:07 32.40785 -93.65116 5173 ft 118 kts 112°
2026-04-12 22:07 32.40656 -93.64147 5368 ft 120 kts 111°
2026-04-12 22:08 32.40525 -93.63167 5572 ft 121 kts 111°
2026-04-12 22:08 32.40393 -93.62177 5787 ft 122 kts 111°
2026-04-12 22:08 32.40232 -93.61192 6013 ft 119 kts 123°
2026-04-12 22:08 32.39799 -93.60424 6255 ft 109 kts 147°
2026-04-12 22:09 32.39191 -93.59955 6483 ft 102 kts 168°
2026-04-12 22:09 32.38517 -93.59801 6698 ft 97 kts 186°
2026-04-12 22:09 32.37846 -93.59901 6898 ft 99 kts 193°
2026-04-12 22:09 32.37135 -93.60020 6988 ft 111 kts 193°
2026-04-12 22:10 32.36315 -93.60160 6995 ft 126 kts 192°
2026-04-12 22:10 32.35412 -93.60313 6999 ft 135 kts 192°
2026-04-12 22:10 32.34462 -93.60474 7001 ft 141 kts 192°
2026-04-12 22:10 32.33480 -93.60640 7006 ft 144 kts 192°
2026-04-12 22:11 32.32478 -93.60811 7001 ft 147 kts 192°
2026-04-12 22:11 32.31465 -93.60984 7003 ft 148 kts 192°
2026-04-12 22:11 32.30443 -93.61158 7003 ft 148 kts 192°
2026-04-12 22:11 32.29767 -93.61273 7002 ft 148 kts 191°
2026-04-12 22:12 32.28740 -93.61451 6998 ft 149 kts 191°
2026-04-12 22:12 32.27710 -93.61624 6998 ft 150 kts 190°
2026-04-12 22:12 32.26675 -93.61801 7002 ft 151 kts 190°
2026-04-12 22:12 32.25631 -93.61981 7001 ft 153 kts 190°
2026-04-12 22:13 32.24571 -93.62160 7005 ft 155 kts 191°
2026-04-12 22:13 32.23492 -93.62344 7011 ft 158 kts 191°
2026-04-12 22:13 32.22409 -93.62530 7011 ft 156 kts 191°
2026-04-12 22:13 32.21337 -93.62711 7011 ft 155 kts 191°
2026-04-12 22:14 32.20272 -93.62892 7007 ft 154 kts 190°
2026-04-12 22:14 32.19213 -93.63056 7011 ft 153 kts 191°
2026-04-12 22:14 32.18162 -93.63254 7007 ft 154 kts 191°
2026-04-12 22:14 32.17096 -93.63433 7009 ft 155 kts 191°
2026-04-12 22:15 32.16031 -93.63620 7006 ft 154 kts 192°
2026-04-12 22:15 32.14991 -93.63796 7000 ft 148 kts 190°
2026-04-12 22:15 32.13999 -93.63961 6997 ft 145 kts 191°
2026-04-12 22:15 32.12996 -93.64131 7003 ft 143 kts 191°
2026-04-12 22:16 32.12020 -93.64297 6999 ft 141 kts 191°
2026-04-12 22:16 32.11050 -93.64462 7000 ft 140 kts 191°
2026-04-12 22:16 32.10086 -93.64626 7000 ft 140 kts 191°
2026-04-12 22:16 32.09125 -93.64789 7000 ft 139 kts 191°
2026-04-12 22:17 32.08163 -93.64953 6998 ft 140 kts 191°
2026-04-12 22:17 32.07213 -93.65114 6999 ft 139 kts 190°
2026-04-12 22:17 32.06255 -93.65279 7001 ft 139 kts 191°
2026-04-12 22:17 32.05292 -93.65444 6998 ft 140 kts 190°
2026-04-12 22:18 32.04325 -93.65606 7003 ft 141 kts 191°
2026-04-12 22:18 32.03355 -93.65770 7004 ft 141 kts 190°
2026-04-12 22:18 32.02383 -93.65935 7003 ft 141 kts 191°
2026-04-12 22:18 32.01413 -93.66100 7004 ft 141 kts 190°
2026-04-12 22:19 32.00446 -93.66264 7005 ft 141 kts 190°
2026-04-12 22:19 31.99477 -93.66428 7006 ft 141 kts 189°
2026-04-12 22:19 31.98504 -93.66593 7007 ft 142 kts 190°
2026-04-12 22:19 31.97525 -93.66759 7005 ft 142 kts 190°
2026-04-12 22:20 31.96548 -93.66925 7005 ft 141 kts 190°
2026-04-12 22:20 31.95578 -93.67089 7007 ft 141 kts 190°
2026-04-12 22:20 31.94606 -93.67254 7004 ft 141 kts 189°
2026-04-12 22:20 31.93633 -93.67419 7005 ft 141 kts 189°
2026-04-12 22:21 31.92662 -93.67583 7006 ft 141 kts 190°
2026-04-12 22:21 31.91689 -93.67748 7006 ft 141 kts 190°
2026-04-12 22:21 31.90715 -93.67913 7010 ft 141 kts 190°
2026-04-12 22:21 31.89742 -93.68078 7011 ft 141 kts 190°
2026-04-12 22:22 31.88769 -93.68242 7011 ft 142 kts 190°
2026-04-12 22:22 31.87791 -93.68406 7012 ft 142 kts 189°
2026-04-12 22:22 31.86812 -93.68571 7010 ft 142 kts 190°
2026-04-12 22:22 31.85835 -93.68738 7011 ft 142 kts 190°
2026-04-12 22:23 31.84857 -93.68905 7010 ft 142 kts 190°
2026-04-12 22:23 31.83884 -93.69073 7007 ft 141 kts 190°
2026-04-12 22:23 31.82914 -93.69231 7010 ft 141 kts 190°
2026-04-12 22:23 31.81946 -93.69394 7008 ft 140 kts 190°
2026-04-12 22:24 31.80983 -93.69558 7012 ft 140 kts 190°
2026-04-12 22:24 31.80019 -93.69721 7015 ft 140 kts 191°
2026-04-12 22:24 31.79054 -93.69886 7014 ft 140 kts 190°
2026-04-12 22:24 31.78086 -93.70049 7013 ft 140 kts 190°
2026-04-12 22:25 31.77121 -93.70211 7016 ft 140 kts 190°
2026-04-12 22:25 31.76173 -93.70371 7019 ft 140 kts 190°
2026-04-12 22:25 31.75207 -93.70534 7016 ft 140 kts 190°
2026-04-12 22:25 31.74239 -93.70697 7013 ft 141 kts 190°
2026-04-12 22:26 31.73265 -93.70867 7016 ft 142 kts 190°
2026-04-12 22:26 31.72283 -93.71031 7016 ft 143 kts 190°
2026-04-12 22:26 31.71297 -93.71195 7018 ft 143 kts 190°
2026-04-12 22:26 31.70307 -93.71361 7018 ft 144 kts 190°
2026-04-12 22:27 31.69313 -93.71528 7017 ft 144 kts 190°
2026-04-12 22:27 31.68319 -93.71695 7025 ft 145 kts 190°
2026-04-12 22:27 31.67322 -93.71864 7023 ft 145 kts 190°
2026-04-12 22:27 31.66324 -93.72030 7025 ft 145 kts 190°
2026-04-12 22:28 31.65325 -93.72200 7023 ft 145 kts 190°
2026-04-12 22:28 31.64328 -93.72366 7022 ft 145 kts 190°
2026-04-12 22:28 31.63332 -93.72536 7023 ft 145 kts 190°
2026-04-12 22:28 31.62337 -93.72700 7022 ft 145 kts 190°
2026-04-12 22:29 31.61344 -93.72870 7032 ft 144 kts 190°
2026-04-12 22:29 31.60353 -93.73036 7031 ft 144 kts 190°
2026-04-12 22:29 31.59399 -93.73357 7031 ft 143 kts 203°
2026-04-12 22:29 31.58469 -93.73781 7032 ft 144 kts 201°
2026-04-12 22:30 31.57534 -93.74198 7035 ft 144 kts 201°
2026-04-12 22:30 31.56597 -93.74618 7036 ft 144 kts 201°
2026-04-12 22:30 31.55657 -93.75039 7035 ft 145 kts 201°
2026-04-12 22:30 31.54731 -93.75455 7035 ft 144 kts 201°
2026-04-12 22:31 31.53796 -93.75875 7036 ft 144 kts 201°
2026-04-12 22:31 31.52864 -93.76292 7036 ft 143 kts 201°
2026-04-12 22:31 31.51936 -93.76709 7036 ft 143 kts 201°
2026-04-12 22:31 31.51007 -93.77125 7036 ft 143 kts 201°
2026-04-12 22:32 31.50079 -93.77539 7036 ft 143 kts 202°
2026-04-12 22:32 31.49149 -93.77959 7036 ft 143 kts 202°
2026-04-12 22:32 31.48218 -93.78376 7038 ft 144 kts 201°
2026-04-12 22:32 31.47284 -93.78793 7036 ft 144 kts 202°
2026-04-12 22:33 31.46349 -93.79212 7030 ft 144 kts 201°
2026-04-12 22:33 31.45412 -93.79631 7034 ft 144 kts 201°
2026-04-12 22:33 31.44474 -93.80052 7035 ft 145 kts 201°
2026-04-12 22:33 31.43535 -93.80472 7037 ft 144 kts 201°
2026-04-12 22:34 31.42595 -93.80892 7042 ft 145 kts 201°
2026-04-12 22:34 31.41656 -93.81312 7043 ft 144 kts 202°
2026-04-12 22:34 31.40717 -93.81732 7040 ft 144 kts 202°
2026-04-12 22:34 31.39778 -93.82152 7040 ft 145 kts 202°
2026-04-12 22:35 31.38839 -93.82572 7040 ft 145 kts 202°
2026-04-12 22:35 31.37899 -93.82992 7041 ft 145 kts 202°
2026-04-12 22:35 31.36958 -93.83413 7040 ft 145 kts 202°
2026-04-12 22:35 31.36018 -93.83833 7040 ft 145 kts 202°
2026-04-12 22:36 31.35075 -93.84254 7038 ft 145 kts 202°
2026-04-12 22:36 31.34130 -93.84675 7038 ft 145 kts 202°
2026-04-12 22:36 31.33188 -93.85097 7038 ft 145 kts 202°
2026-04-12 22:36 31.32248 -93.85516 7036 ft 144 kts 202°
2026-04-12 22:37 31.31311 -93.85934 7037 ft 144 kts 202°
2026-04-12 22:37 31.30388 -93.86346 7037 ft 144 kts 202°
2026-04-12 22:37 31.29456 -93.86761 7037 ft 143 kts 202°
2026-04-12 22:37 31.28527 -93.87176 7037 ft 143 kts 202°
2026-04-12 22:38 31.27597 -93.87591 7038 ft 143 kts 202°
2026-04-12 22:38 31.26665 -93.88007 7037 ft 144 kts 202°
2026-04-12 22:38 31.25731 -93.88422 7038 ft 144 kts 202°
2026-04-12 22:38 31.24799 -93.88838 7038 ft 143 kts 202°
2026-04-12 22:39 31.23865 -93.89254 7040 ft 144 kts 202°
2026-04-12 22:39 31.22930 -93.89671 7040 ft 144 kts 202°
2026-04-12 22:39 31.21996 -93.90087 7040 ft 144 kts 202°
2026-04-12 22:40 31.20123 -93.90920 7040 ft 144 kts 202°
2026-04-12 22:40 31.19182 -93.91338 7039 ft 145 kts 202°
2026-04-12 22:40 31.18239 -93.91759 7039 ft 145 kts 201°
2026-04-12 22:40 31.17297 -93.92178 7038 ft 145 kts 201°
2026-04-12 22:41 31.16357 -93.92591 7041 ft 144 kts 201°
2026-04-12 22:41 31.15418 -93.93015 7039 ft 145 kts 201°
2026-04-12 22:41 31.14474 -93.93434 7040 ft 145 kts 201°
2026-04-12 22:41 31.13531 -93.93853 7041 ft 146 kts 201°
2026-04-12 22:42 31.12582 -93.94275 7044 ft 146 kts 201°
2026-04-12 22:42 31.11628 -93.94697 7044 ft 146 kts 201°
2026-04-12 22:42 31.10677 -93.95121 7044 ft 146 kts 201°
2026-04-12 22:42 31.09734 -93.95539 7043 ft 147 kts 201°
2026-04-12 22:43 31.08777 -93.95964 7044 ft 147 kts 201°
2026-04-12 22:43 31.07821 -93.96388 7044 ft 147 kts 201°
2026-04-12 22:43 31.06864 -93.96813 7040 ft 147 kts 201°
2026-04-12 22:43 31.05908 -93.97237 7042 ft 147 kts 201°
2026-04-12 22:44 31.04947 -93.97664 7040 ft 148 kts 201°
2026-04-12 22:44 31.03988 -93.98089 7042 ft 147 kts 201°
2026-04-12 22:44 31.03029 -93.98514 7041 ft 147 kts 201°
2026-04-12 22:44 31.02075 -93.98938 7042 ft 147 kts 201°
2026-04-12 22:45 31.01122 -93.99360 7043 ft 146 kts 201°
2026-04-12 22:45 31.00159 -93.99787 7044 ft 146 kts 201°
2026-04-12 22:45 30.99225 -94.00201 7041 ft 145 kts 200°
2026-04-12 22:45 30.98273 -94.00621 7043 ft 144 kts 201°
2026-04-12 22:46 30.97331 -94.01038 7041 ft 145 kts 201°
2026-04-12 22:46 30.96401 -94.01446 7043 ft 145 kts 201°
2026-04-12 22:46 30.95457 -94.01872 7042 ft 146 kts 201°
2026-04-12 22:46 30.94509 -94.02289 7044 ft 145 kts 201°
2026-04-12 22:47 30.93560 -94.02710 7008 ft 146 kts 201°
2026-04-12 22:47 30.92608 -94.03130 7007 ft 146 kts 201°
2026-04-12 22:47 30.91661 -94.03549 7007 ft 145 kts 201°
2026-04-12 22:47 30.90717 -94.03966 7008 ft 145 kts 201°